EA5DFV Weather Reports


Display with metric or nautical units.
time (UTC)temp
F
wind
direction
speed
MPH
gust
MPH
rain 1hr
in
rain 24hr
in
rain mn
in
humidity
%
barometer
mb
20260508071333 61 205 0.0 4.0 0.00 3.98 0.00 84 1012.7
20260508070831 60 205 1.0 3.0 0.00 3.98 0.00 83 1012.5
20260508070342 60 205 0.0 3.0 0.00 3.98 0.00 84 1012.4
20260508065832 60 205 0.0 3.0 0.00 3.98 0.00 84 1012.4
20260508065325 60 205 0.0 2.0 0.00 3.98 0.00 84 1012.5
20260508064838 60 205 1.0 3.0 0.00 3.98 0.00 84 1012.4
20260508064332 59 205 0.0 1.0 0.00 3.98 0.00 84 1012.4
20260508063822 59 205 0.0 3.0 0.00 3.98 0.00 84 1012.4
20260508063320 59 205 1.0 5.0 0.00 3.98 0.00 84 1012.5
20260508062833 59 205 2.0 5.0 0.00 3.98 0.00 84 1012.5
20260508062326 59 205 1.0 3.0 0.00 3.98 0.00 84 1012.4
20260508061840 59 205 1.0 3.0 0.00 3.98 0.00 84 1012.3
20260508061332 58 205 1.0 4.0 0.00 3.98 0.00 84 1012.1
20260508060826 58 205 2.0 4.0 0.00 3.98 0.00 84 1012.1
20260508060339 58 205 0.0 4.0 0.00 3.98 0.00 84 1011.9
20260508055829 58 205 2.0 5.0 0.00 3.98 0.00 84 1011.9
20260508055327 58 205 1.0 5.0 0.00 3.98 0.00 84 1012.1
20260508054840 57 205 2.0 6.0 0.00 3.98 0.00 84 1012.1
20260508054331 57 205 3.0 6.0 0.00 3.98 0.00 84 1012.2
20260508053841 57 203 3.0 4.0 0.00 3.98 0.00 84 1012.1
20260508053332 57 203 1.0 4.0 0.00 3.98 0.00 84 1012.0
20260508052841 56 203 0.0 3.0 0.00 3.98 0.00 84 1011.9
20260508052332 56 203 1.0 4.0 0.00 3.98 0.00 84 1011.7
20260508051825 56 203 2.0 4.0 0.00 3.98 0.00 84 1011.6
20260508051336 56 203 2.0 5.0 0.00 3.98 0.00 84 1011.6
20260508050833 55 203 2.0 5.0 0.00 3.98 0.00 84 1011.6
20260508050326 55 203 0.0 0.0 0.00 3.98 0.00 84 1011.4
20260508045839 55 203 0.0 1.0 0.00 3.98 0.00 84 1011.3
20260508045329 55 203 0.0 3.0 0.00 3.98 0.00 84 1011.4
20260508044826 55 203 1.0 3.0 0.00 3.98 0.00 84 1011.3
20260508044336 55 203 1.0 4.0 0.00 3.98 0.00 83 1011.2
20260508043827 55 203 2.0 4.0 0.00 3.98 0.00 84 1011.3
20260508043321 54 203 1.0 3.0 0.00 3.98 0.00 84 1011.4
20260508042832 54 203 1.0 4.0 0.00 3.98 0.00 84 1011.3
20260508042326 53 203 2.0 4.0 0.00 3.98 0.00 84 1011.2
20260508041822 53 203 0.0 0.0 0.00 3.98 0.00 84 1011.2
20260508041333 52 203 0.0 0.0 0.00 3.98 0.00 84 1011.1
20260508040823 52 203 0.0 0.0 0.00 3.98 0.00 84 1011.2
20260508040328 52 203 0.0 0.0 0.00 3.98 0.00 84 1011.2
20260508035838 52 203 0.0 0.0 0.00 3.98 0.00 84 1011.3
20260508035329 52 203 0.0 1.0 0.00 3.98 0.00 84 1011.4
20260508034826 52 203 0.0 1.0 0.00 3.98 0.00 84 1011.5
20260508034336 52 203 0.0 0.0 0.00 3.98 0.00 84 1011.4
20260508033827 52 203 0.0 0.0 0.00 3.98 0.00 84 1011.3
20260508033320 52 203 0.0 0.0 0.00 3.98 0.00 84 1011.2
20260508032829 53 203 0.0 0.0 0.00 3.98 0.00 85 1011.3
20260508032326 53 203 0.0 1.0 0.00 3.98 0.00 84 1011.3
20260508031820 53 203 0.0 1.0 0.00 3.98 0.00 84 1011.3
20260508031330 53 203 0.0 1.0 0.00 3.98 0.00 85 1011.4
20260508030825 53 203 0.0 2.0 0.00 3.98 0.00 85 1011.5
20260508030338 53 203 0.0 2.0 0.00 3.98 0.00 84 1011.4
20260508025824 53 203 0.0 2.0 0.00 3.98 0.00 85 1011.3
20260508025337 53 203 0.0 2.0 0.00 3.98 0.00 85 1011.4
20260508024828 53 203 0.0 1.0 0.00 3.98 0.00 84 1011.4
20260508024318 53 203 0.0 3.0 0.00 3.98 0.00 85 1011.6
20260508023832 53 203 1.0 3.0 0.00 3.98 0.00 84 1011.6
20260508023326 53 203 1.0 3.0 0.00 3.98 0.00 85 1011.5
20260508022823 53 203 1.0 3.0 0.00 3.98 0.00 85 1011.5
20260508022334 53 203 1.0 3.0 0.00 3.98 0.00 85 1011.6
20260508021824 53 203 1.0 3.0 0.00 3.98 0.00 85 1011.6
20260508021335 53 203 1.0 3.0 0.00 3.98 0.00 85 1011.7
20260508020336 53 203 0.0 3.0 0.00 3.98 0.00 85 1011.7
20260508015830 53 203 0.0 3.0 0.00 3.98 0.00 85 1011.6
20260508015320 53 203 0.0 3.0 0.00 3.98 0.00 85 1011.7
20260508014838 53 203 1.0 3.0 0.00 3.98 0.00 84 1011.7
20260508014328 53 203 0.0 3.0 0.00 3.98 0.00 84 1011.8
20260508013838 53 203 2.0 3.0 0.00 3.98 0.00 84 1011.7
20260508013329 53 203 0.0 0.0 0.00 3.98 0.00 84 1011.8
20260508012822 53 203 0.0 0.0 0.00 3.98 0.00 84 1011.9
20260508012332 53 203 0.0 0.0 0.00 3.98 0.00 84 1011.9
20260508011826 53 203 0.0 0.0 0.00 3.98 0.00 85 1012.0
20260508011337 53 203 0.0 0.0 0.00 3.98 0.00 85 1012.1
20260508010831 53 203 0.0 0.0 0.00 3.98 0.00 85 1012.1
20260508010322 53 203 0.0 0.0 0.00 3.98 0.00 85 1012.1
20260508005832 54 203 0.0 0.0 0.00 3.98 0.00 85 1012.1
20260508005326 54 203 0.0 0.0 0.00 3.98 0.00 85 1012.1
20260508004836 54 203 0.0 0.0 0.00 3.98 0.00 84 1012.1
20260508004327 54 203 0.0 0.0 0.00 3.98 0.00 84 1012.2
20260508003837 54 203 0.0 0.0 0.00 3.98 0.00 85 1012.2
20260508003328 54 203 0.0 0.0 0.00 3.98 0.00 84 1012.2
20260508002822 55 203 0.0 0.0 0.00 3.98 0.00 84 1012.2
20260508002333 55 203 0.0 0.0 0.00 3.98 0.00 85 1012.1
20260508001824 55 203 0.0 0.0 0.00 3.98 0.00 85 1012.2
20260508001316 55 203 0.0 0.0 0.00 3.98 0.00 84 1012.2
20260508000826 55 203 0.0 0.0 0.00 3.98 0.00 84 1012.2
20260508000321 55 203 0.0 3.0 0.00 3.98 0.00 84 1012.2
20260507235832 55 203 1.0 3.0 0.00 3.98 0.00 85 1012.2
20260507235326 56 203 0.0 3.0 0.00 3.98 0.00 85 1012.3
20260507234823 56 203 1.0 4.0 0.00 3.98 0.00 85 1012.4
20260507234333 56 203 2.0 4.0 0.00 3.98 0.00 85 1012.4
20260507233827 56 203 2.0 4.0 0.00 3.98 0.00 84 1012.4
20260507233317 56 203 1.0 6.0 0.00 3.98 0.00 84 1012.4
20260507232829 56 203 2.0 6.0 0.00 3.98 0.00 84 1012.4
20260507232318 56 200 2.0 4.0 0.00 3.98 0.00 84 1012.4
20260507231829 56 200 0.0 5.0 0.00 3.98 0.00 84 1012.5
20260507231322 56 200 1.0 4.0 0.00 3.98 0.00 84 1012.5
20260507230832 56 200 0.0 4.0 0.00 3.98 0.00 84 1012.5
20260507230326 56 200 1.0 3.0 0.00 3.98 0.00 84 1012.5
20260507225838 56 200 0.0 1.0 0.00 3.98 0.00 84 1012.6
20260507225329 56 200 0.0 3.0 0.00 3.98 0.00 84 1012.7
20260507224822 56 200 1.0 5.0 0.00 3.98 0.00 84 1012.6
20260507224333 56 200 2.0 5.0 0.00 3.98 0.00 84 1012.6
20260507223827 56 200 1.0 5.0 0.00 3.98 0.00 84 1012.6
20260507223317 56 200 1.0 6.0 0.00 3.98 0.00 84 1012.6
20260507222831 56 200 3.0 6.0 0.00 3.98 0.00 84 1012.6
20260507222326 56 200 2.0 4.0 0.00 3.98 0.00 84 1012.5
20260507221816 56 200 0.0 2.0 0.00 3.98 0.00 84 1012.6
20260507221326 55 200 0.0 1.0 0.00 3.98 0.00 84 1012.6
20260507220820 56 200 0.0 0.0 0.00 3.98 0.00 84 1012.7
20260507220322 56 200 0.0 3.0 0.00 3.98 0.00 84 1012.8
20260507215833 56 200 0.0 3.0 0.00 3.98 0.80 84 1012.9
20260507215323 56 200 1.0 4.0 0.00 3.98 0.80 84 1012.9
20260507214834 56 200 1.0 3.0 0.00 3.98 0.80 84 1012.9
20260507214327 56 200 1.0 4.0 0.00 3.98 0.80 84 1012.9
20260507213818 56 200 2.0 4.0 0.00 3.98 0.80 84 1013.0
20260507213328 55 200 1.0 2.0 0.00 3.98 0.80 84 1013.0
20260507212822 56 200 1.0 2.0 0.00 3.98 0.80 84 1013.0
20260507212333 56 200 0.0 3.0 0.00 3.98 0.80 84 1013.1
20260507211826 56 200 0.0 3.0 0.04 3.98 0.80 84 1013.0
20260507211322 56 200 0.0 4.0 0.04 3.98 0.80 84 1013.0
20260507210833 56 200 1.0 4.0 0.04 3.98 0.80 84 1012.9
20260507210331 55 200 2.0 5.0 0.04 3.98 0.80 84 1012.9
20260507205821 55 199 2.0 4.0 0.08 3.98 0.80 84 1012.8
20260507205332 55 199 2.0 4.0 0.08 3.98 0.80 84 1012.7
20260507204828 55 199 1.0 5.0 0.08 3.98 0.80 84 1012.6
20260507204339 55 199 0.0 5.0 0.08 3.98 0.80 84 1012.5
20260507203830 56 198 1.0 6.0 0.12 3.98 0.80 84 1012.4
20260507203326 56 198 3.0 6.0 0.16 3.98 0.80 84 1012.3
20260507202820 56 188 2.0 5.0 0.20 3.98 0.80 84 1012.4
20260507202337 56 188 1.0 5.0 0.24 3.98 0.80 84 1012.3
20260507201828 56 181 2.0 4.0 0.28 3.94 0.79 84 1012.2
20260507201320 56 179 2.0 3.0 0.39 3.94 0.79 84 1012.2
20260507200831 56 179 0.0 2.0 0.51 3.94 0.79 84 1012.2
20260507200321 56 179 0.0 0.0 0.63 3.94 0.79 84 1012.3
20260507195832 56 179 0.0 0.0 0.67 3.90 0.78 84 1012.2
20260507195322 56 179 0.0 0.0 0.79 3.90 0.78 84 1012.1
20260507194833 56 179 0.0 1.0 0.87 3.90 0.78 84 1012.2
20260507194331 56 179 0.0 2.0 0.98 3.90 0.78 84 1012.1
20260507193821 56 179 0.0 3.0 1.06 3.86 0.77 84 1012.2
20260507193332 56 179 0.0 3.0 1.10 3.82 0.76 84 1012.3
20260507192824 56 179 0.0 0.0 1.18 3.78 0.76 84 1012.3
20260507192318 56 179 0.0 1.0 1.30 3.74 0.75 84 1012.2
20260507191832 56 179 0.0 2.0 1.26 3.66 0.73 84 1012.1
20260507191322 56 179 1.0 3.0 1.18 3.54 0.71 84 1012.0
20260507190832 56 179 1.0 3.0 1.10 3.43 0.69 84 1011.9
20260507190327 56 179 2.0 3.0 0.98 3.31 0.66 84 1012.0
20260507185838 56 179 1.0 3.0 0.94 3.23 0.65 85 1012.0
20260507185328 56 179 0.0 3.0 0.94 3.11 0.62 85 1012.2
20260507184838 56 179 0.0 4.0 0.94 2.99 0.60 85 1012.2
20260507184329 56 179 2.0 4.0 0.98 2.87 0.57 85 1012.1
20260507183822 56 178 2.0 7.0 1.22 2.76 0.55 85 1012.1
20260507183332 56 178 3.0 7.0 1.30 2.72 0.54 85 1012.1
20260507182826 57 180 3.0 8.0 1.26 2.60 0.52 84 1011.9
20260507182320 57 179 2.0 8.0 1.14 2.44 0.49 84 1011.9
20260507181833 57 150 2.0 7.0 1.14 2.40 0.48 84 1011.9
20260507181323 57 186 4.0 11.0 1.26 2.36 0.47 84 1011.6
20260507180837 57 132 4.0 11.0 1.30 2.32 0.46 84 1011.5
20260507180328 57 96 2.0 8.0 1.42 2.32 0.46 84 1011.5
20260507175837 57 153 3.0 9.0 1.42 2.24 0.45 84 1011.3
20260507175328 57 146 3.0 9.0 1.38 2.17 0.43 84 1011.3
20260507174822 58 169 3.0 9.0 1.26 2.01 0.40 84 1011.1
20260507174319 59 88 3.0 8.0 1.10 1.81 0.36 84 1011.1
20260507173832 59 32 2.0 5.0 0.83 1.54 0.31 86 1011.1
20260507173326 59 27 1.0 5.0 0.67 1.38 0.28 84 1010.8
20260507172820 60 26 1.0 13.0 0.63 1.34 0.27 83 1010.7
20260507172334 60 320 1.0 6.0 0.59 1.30 0.26 83 1010.7
20260507171824 60 12 1.0 9.0 0.55 1.26 0.25 83 1010.4
20260507171333 61 355 3.0 9.0 0.39 1.10 0.22 83 1010.5
20260507170827 62 46 1.0 4.0 0.28 0.98 0.20 83 1010.4
20260507170324 62 41 0.0 5.0 0.20 0.91 0.18 82 1010.4
20260507165835 63 40 1.0 7.0 0.12 0.83 0.17 83 1010.4
20260507165329 63 11 3.0 9.0 0.12 0.79 0.16 83 1010.4
20260507164822 63 346 1.0 8.0 0.12 0.75 0.15 83 1010.3
20260507164333 63 347 4.0 8.0 0.08 0.71 0.14 83 1010.3
20260507163826 64 269 1.0 3.0 0.08 0.71 0.14 83 1010.3
20260507163337 64 269 0.0 3.0 0.08 0.71 0.14 83 1010.2
20260507162826 64 269 1.0 3.0 0.08 0.71 0.14 82 1010.0
20260507162327 64 269 0.0 5.0 0.08 0.71 0.14 82 1010.0
20260507161823 64 345 1.0 7.0 0.08 0.71 0.14 82 1010.0
20260507161334 64 360 2.0 7.0 0.08 0.71 0.14 82 1010.0
20260507160827 65 334 1.0 7.0 0.08 0.71 0.14 81 1009.9
20260507160333 65 334 2.0 7.0 0.08 0.71 0.14 81 1009.8
20260507155827 65 5 1.0 7.0 0.04 0.67 0.13 80 1009.8
20260507155339 65 5 4.0 7.0 0.04 0.67 0.13 79 1009.9
20260507154830 66 9 2.0 7.0 0.00 0.63 0.13 79 1009.8
20260507154326 66 9 4.0 7.0 0.00 0.63 0.13 79 1009.8
20260507153820 66 18 0.0 5.0 0.00 0.63 0.13 79 1009.7
20260507153333 66 19 2.0 8.0 0.00 0.63 0.13 78 1009.7
20260507153101 66 19 3.0 8.0 0.00 0.63 0.13 78 1009.7
20260507152856 0 345 2.0 0.0 0.00 0.00 0.00
20260507152824 66 19 3.0 8.0 0.00 0.63 0.13 78 1009.7
20260507152338 66 345 2.0 6.0 0.00 0.63 0.13 78 1009.8
20260507151828 66 344 3.0 6.0 0.00 0.63 0.13 78 1009.8
20260507151319 66 351 2.0 5.0 0.00 0.63 0.13 78 1009.8
20260507150831 66 11 1.0 4.0 0.00 0.63 0.13 78 1009.7
20260507150329 66 22 0.0 3.0 0.00 0.63 0.13 78 1009.7
20260507145822 66 22 1.0 6.0 0.00 0.63 0.13 77 1009.8
20260507145333 66 23 1.0 7.0 0.00 0.63 0.13 77 1009.8
20260507144823 66 22 4.0 7.0 0.00 0.63 0.13 77 1010.0
20260507144334 66 10 1.0 6.0 0.00 0.63 0.13 78 1010.0
20260507143827 66 9 3.0 9.0 0.00 0.63 0.13 78 1010.0
20260507143337 66 5 1.0 9.0 0.00 0.63 0.13 78 1010.0
20260507142831 66 77 1.0 7.0 0.00 0.63 0.13 78 1010.0
20260507142325 66 67 0.0 7.0 0.00 0.63 0.13 79 1010.0
20260507141836 66 61 2.0 7.0 0.00 0.63 0.13 79 1010.1
20260507141328 66 36 2.0 9.0 0.00 0.63 0.13 78 1010.2
20260507140839 67 59 2.0 9.0 0.00 0.63 0.13 79 1010.2
20260507140332 67 49 3.0 11.0 0.00 0.63 0.13 78 1010.2
20260507135826 67 360 4.0 11.0 0.08 0.63 0.13 78 1010.2
20260507135339 67 10 2.0 11.0 0.43 0.63 0.13 81 1010.2
20260507134829 67 9 2.0 11.0 0.63 0.63 0.13 81 1010.3
20260507134326 67 38 3.0 10.0 0.63 0.63 0.13 81 1010.4
20260507133837 67 30 4.0 10.0 0.63 0.63 0.13 82 1010.4
20260507133330 67 18 3.0 7.0 0.63 0.63 0.13 83 1010.4
20260507132827 66 16 1.0 7.0 0.63 0.63 0.13 83 1010.5
20260507132340 66 31 3.0 7.0 0.63 0.63 0.13 83 1010.6
20260507131831 66 5 3.0 7.0 0.63 0.63 0.13 83 1010.8
20260507131321 65 65 1.0 3.0 0.63 0.63 0.13 82 1010.8
20260507130833 65 65 1.0 4.0 0.63 0.63 0.13 81 1010.9
20260507130328 66 66 1.0 7.0 0.63 0.63 0.13 80 1011.1
20260507125842 67 60 1.0 7.0 0.55 0.55 0.11 79 1011.1
20260507125332 68 81 2.0 8.0 0.16 0.16 0.03 78 1011.2
20260507124823 68 11 3.0 10.0 0.00 0.00 0.00 76 1011.0
20260507124333 69 23 4.0 9.0 0.00 0.00 0.00 76 1011.0
20260507123824 69 51 4.0 9.0 0.00 0.00 0.00 76 1011.1
20260507123333 69 11 3.0 9.0 0.00 0.00 0.00 74 1010.9
20260507122827 69 55 2.0 12.0 0.00 0.00 0.00 74 1011.0
20260507122325 69 13 5.0 12.0 0.00 0.00 0.00 74 1011.2
20260507121835 69 71 2.0 8.0 0.00 0.00 0.00 74 1011.1
20260507121329 69 12 1.0 7.0 0.00 0.00 0.00 74 1011.2
20260507120842 69 5 3.0 11.0 0.00 0.00 0.00 73 1011.2
20260507120334 69 13 3.0 11.0 0.00 0.00 0.00 73 1011.2
20260507115841 69 9 3.0 9.0 0.00 0.00 0.00 73 1011.3
20260507115335 70 5 4.0 9.0 0.00 0.00 0.00 72 1011.4
20260507114828 70 355 2.0 9.0 0.00 0.00 0.00 73 1011.5
20260507114339 69 12 2.0 8.0 0.00 0.00 0.00 74 1011.5
20260507113834 69 13 4.0 10.0 0.00 0.00 0.00 74 1011.4
20260507113344 69 13 4.0 10.0 0.00 0.00 0.00 74 1011.6
20260507112835 69 18 3.0 7.0 0.00 0.00 0.00 74 1011.6
20260507112331 69 18 1.0 7.0 0.00 0.00 0.00 74 1011.6
20260507111842 69 15 4.0 7.0 0.00 0.00 0.00 73 1011.6
20260507111332 69 13 2.0 6.0 0.00 0.00 0.00 74 1011.7
20260507110843 69 13 1.0 5.0 0.00 0.00 0.00 75 1011.8
20260507110332 69 15 3.0 5.0 0.00 0.00 0.00 75 1011.8
20260507105827 69 15 0.0 5.0 0.00 0.00 0.00 75 1011.7
20260507105320 68 15 1.0 4.0 0.00 0.00 0.00 75 1011.8
20260507104834 68 15 1.0 4.0 0.00 0.00 0.00 76 1011.9
20260507104328 68 15 0.0 5.0 0.00 0.00 0.00 76 1011.8
20260507103838 67 15 0.0 4.0 0.00 0.00 0.00 77 1011.8
20260507103328 67 15 0.0 6.0 0.00 0.00 0.00 77 1012.0
20260507102838 67 15 0.0 6.0 0.00 0.00 0.00 77 1012.0
20260507102329 67 15 1.0 5.0 0.00 0.00 0.00 77 1012.0
20260507101846 67 15 3.0 6.0 0.00 0.00 0.00 77 1011.9
20260507101337 67 16 3.0 6.0 0.00 0.00 0.00 77 1012.0
20260507100830 67 17 1.0 6.0 0.00 0.00 0.00 77 1011.9
20260507100335 67 18 1.0 6.0 0.00 0.00 0.00 77 1012.0
20260507095832 67 18 2.0 6.0 0.00 0.00 0.00 77 1012.1
20260507095342 66 18 1.0 4.0 0.00 0.00 0.00 77 1012.1
20260507094833 66 18 1.0 4.0 0.00 0.00 0.00 77 1012.2
20260507094343 66 18 0.0 5.0 0.00 0.00 0.00 78 1012.1
20260507093838 66 18 1.0 6.0 0.00 0.00 0.00 77 1012.2
20260507093328 66 21 1.0 5.0 0.00 0.00 0.00 76 1012.2
20260507092838 66 21 1.0 7.0 0.00 0.00 0.00 76 1012.2
20260507092329 66 21 2.0 7.0 0.00 0.00 0.00 75 1012.2
20260507091842 67 22 2.0 7.0 0.00 0.00 0.00 75 1012.2
20260507091333 67 30 0.0 4.0 0.00 0.00 0.00 75 1012.1
20260507090823 67 30 1.0 4.0 0.00 0.00 0.00 75 1012.1
20260507090333 67 30 1.0 4.0 0.00 0.00 0.00 76 1012.1
20260507085827 67 30 1.0 3.0 0.00 0.00 0.00 76 1012.1
20260507085324 67 30 0.0 4.0 0.00 0.00 0.00 76 1012.3
20260507084834 67 30 0.0 6.0 0.00 0.00 0.00 75 1012.2
20260507084325 67 30 3.0 5.0 0.00 0.00 0.00 75 1012.2
20260507083835 67 30 2.0 5.0 0.00 0.00 0.00 76 1012.2
20260507083329 66 34 0.0 7.0 0.00 0.00 0.00 75 1012.1
20260507082825 66 34 2.0 7.0 0.00 0.00 0.00 76 1012.1
20260507082336 66 37 2.0 4.0 0.00 0.00 0.00 76 1012.0
20260507081831 66 37 0.0 5.0 0.00 0.00 0.00 76 1011.9
20260507081321 66 39 1.0 4.0 0.00 0.00 0.00 77 1011.9
20260507080835 66 42 1.0 5.0 0.00 0.00 0.00 77 1011.9
20260507080328 65 42 0.0 5.0 0.00 0.00 0.00 78 1011.9
20260507075839 65 43 1.0 6.0 0.00 0.00 0.00 77 1011.9
20260507075329 65 46 1.0 6.0 0.00 0.00 0.00 77 1012.0
20260507074823 65 57 2.0 4.0 0.00 0.00 0.00 77 1011.9
20260507074336 65 60 2.0 4.0 0.00 0.00 0.00 78 1011.9
20260507073830 65 67 0.0 4.0 0.00 0.00 0.00 78 1011.7
20260507073326 64 67 1.0 4.0 0.00 0.00 0.00 78 1011.7
20260507072820 64 69 1.0 5.0 0.00 0.00 0.00 78 1011.6
20260507072331 63 69 0.0 5.0 0.00 0.00 0.00 79 1011.7
20260507071827 63 109 0.0 3.0 0.00 0.00 0.00 79 1011.7